QPF
0.07 0.08 0.09 0.08 0.06 0.05 0.05 0.05 0.03 0.03 0.02 0.01 0.01 0.02 0.02 0.02 0.03 0.03 0.04 0.02 0.01 0.01 0.02 0.03 0.03 0.03 0.02 0.03 0.04 0.05 0.07 0.06 0.05 0.03 0.05 0.07 0.05 0.04 0.03 0.03 0.02 0.01 0.02
0.08 0.09 0.08 0.07 0.06 0.06 0.10 0.05 0.03 0.03 0.04 0.04 0.03 0.03 0.02 0.02 0.01 0.01 0.04 0.03 0.01 0.01 0.02 0.02 0.03 0.03 0.05 0.04 0.05 0.05 0.06 0.06 0.06 0.04 0.04 0.05 0.05 0.04 0.03 0.03 0.03 0.02 0.02
0.07 0.06 0.07 0.06 0.06 0.06 0.06 0.04 0.05 0.05 0.05 0.04 0.05 0.04 0.04 0.04 0.02 0.02 0.03 0.05 0.04 0.03 0.03 0.02 0.03 0.04 0.06 0.07 0.06 0.06 0.05 0.05 0.05 0.03 0.03 0.03 0.03 0.03 0.03 0.03 0.03 0.02 0.02
0.05 0.05 0.06 0.06 0.06 0.04 0.06 0.07 0.06 0.07 0.07 0.06 0.07 0.07 0.05 0.05 0.04 0.03 0.03 0.05 0.07 0.07 0.05 0.03 0.04 0.06 0.08 0.09 0.09 0.08 0.05 0.04 0.04 0.03 0.03 0.02 0.02 0.03 0.02 0.02 0.02 0.02 0.01
0.03 0.04 0.06 0.07 0.05 0.06 0.06 0.05 0.07 0.07 0.07 0.07 0.04 0.06 0.05 0.04 0.06 0.06 0.06 0.07 0.08 0.09 0.08 0.06 0.04 0.04 0.05 0.08 0.08 0.08 0.06 0.04 0.03 0.03 0.03 0.04 0.04 0.04 0.03 0.02 0.03 0.02 0.02
0.04 0.05 0.06 0.06 0.06 0.07 0.07 0.06 0.08 0.06 0.07 0.06 0.04 0.06 0.07 0.07 0.08 0.08 0.07 0.08 0.09 0.09 0.10 0.09 0.08 0.06 0.04 0.05 0.06 0.07 0.07 0.05 0.04 0.03 0.04 0.04 0.05 0.05 0.03 0.03 0.03 0.03 0.03
0.05 0.06 0.07 0.07 0.06 0.08 0.06 0.04 0.04 0.06 0.05 0.03 0.05 0.07 0.08 0.06 0.08 0.08 0.06 0.08 0.09 0.09 0.11 0.10 0.10 0.10 0.08 0.04 0.03 0.05 0.07 0.07 0.07 0.06 0.06 0.06 0.06 0.05 0.04 0.03 0.03 0.02 0.02
0.04 0.04 0.06 0.06 0.06 0.06 0.05 0.05 0.05 0.08 0.07 0.03 0.04 0.08 0.10 0.12 0.11 0.05 0.04 0.04 0.06 0.06 0.06 0.06 0.08 0.09 0.09 0.10 0.04 0.03 0.04 0.06 0.09 0.10 0.08 0.06 0.05 0.04 0.04 0.04 0.04 0.03 0.03
0.03 0.02 0.03 0.04 0.04 0.03 0.05 0.06 0.05 0.05 0.07 0.05 0.03 0.04 0.09 0.11 0.10 0.07 0.03 0.03 0.03 0.05 0.05 0.05 0.05 0.05 0.05 0.08 0.07 0.03 0.01 0.02 0.04 0.06 0.07 0.06 0.05 0.04 0.03 0.04 0.04 0.04 0.04
0.04 0.02 0.03 0.03 0.03 0.03 0.06 0.04 0.05 0.04 0.05 0.04 0.03 0.02 0.03 0.06 0.06 0.09 0.07 0.04 0.02 0.02 0.03 0.02 0.03 0.04 0.05 0.04 0.04 0.01 0.00 0.00 0.01 0.02 0.03 0.03 0.03 0.03 0.02 0.02 0.04 0.04 0.05
0.04 0.03 0.03 0.03 0.03 0.03 0.04 0.04 0.05 0.04 0.03 0.03 0.03 0.02 0.02 0.02 0.02 0.05 0.08 0.05 0.02 0.01 0.01 0.01 0.01 0.02 0.02 0.02 0.02 0.01 0.00 0.00 0.00 0.00 0.01 0.01 0.02 0.02 0.02 0.02 0.04 0.06 0.07
0.05 0.04 0.03 0.03 0.02 0.03 0.03 0.04 0.04 0.03 0.03 0.03 0.03 0.02 0.01 0.01 0.01 0.02 0.04 0.04 0.03 0.01 0.01 0.00 0.00 0.01 0.01 0.01 0.00 0.00 0.00 0.00 0.00 0.00 0.00 0.00 0.00 0.01 0.01 0.01 0.01 0.02 0.04
0.05 0.04 0.03 0.04 0.03 0.02 0.02 0.02 0.02 0.03 0.03 0.02 0.02 0.01 0.01 0.00 0.00 0.01 0.01 0.01 0.01 0.01 0.00 0.00 0.00 0.00 0.00 0.00 0.00 0.00 0.00 0.00 0.00 0.00 0.00 0.00 0.00 0.00 0.00 0.00 0.00 0.01 0.01
0.05 0.03 0.03 0.03 0.03 0.02 0.01 0.01 0.01 0.01 0.02 0.01 0.01 0.00 0.01 0.01 0.01 0.01 0.00 0.00 0.00 0.01 0.00 0.00 0.00 0.00 0.00 0.00 0.00 0.00 0.00 0.00 0.00 0.00 0.00 0.00 0.00 0.00 0.00 0.00 0.00 0.00 0.00
0.04 0.04 0.03 0.02 0.02 0.02 0.01 0.01 0.01 0.01 0.01 0.00 0.00 0.01 0.01 0.00 0.00 0.00 0.00 0.00 0.00 0.01 0.01 0.01 0.00 0.00 0.00 0.00 0.00 0.00 0.00 0.00 0.00 0.00 0.00 0.00 0.00 0.00 0.00 0.00 0.00 0.00 0.00
0.04 0.05 0.04 0.03 0.02 0.01 0.01 0.01 0.01 0.00 0.00 0.00 0.00 0.00 0.01 0.00 0.00 0.00 0.00 0.00 0.00 0.00 0.00 0.00 0.00 0.00 0.00 0.00 0.00 0.00 0.00 0.00 0.00 0.00 0.00 0.00 0.00 0.00 0.00 0.00 0.00 0.00 0.00
0.04 0.03 0.03 0.02 0.02 0.01 0.00 0.01 0.01 0.00 0.00 0.00 0.00 0.00 0.00 0.00 0.00 0.00 0.00 0.00 0.00 0.00 0.00 0.00 0.00 0.00 0.00 0.00 0.00 0.00 0.00 0.00 0.00 0.00 0.00 0.00 0.00 0.00 0.00 0.00 0.00 0.00 0.00
0.03 0.02 0.02 0.01 0.01 0.01 0.01 0.00 0.00 0.00 0.00 0.00 0.00 0.00 0.00 0.00 0.00 0.00 0.00 0.00 0.00 0.00 0.00 0.00 0.00 0.00 0.00 0.01 0.01 0.01 0.00 0.00 0.00 0.00 0.00 0.00 0.00 0.00 0.00 0.00 0.00 0.00 0.00
0.02 0.01 0.01 0.01 0.01 0.01 0.01 0.00 0.00 0.00 0.00 0.00 0.00 0.00 0.00 0.00 0.00 0.00 0.01 0.01 0.00 0.00 0.00 0.01 0.00 0.01 0.01 0.01 0.01 0.01 0.00 0.00 0.00 0.00 0.00 0.00 0.00 0.00 0.00 0.00 0.00 0.00 0.00
0.01 0.01 0.01 0.01 0.01 0.01 0.00 0.00 0.00 0.00 0.00 0.00 0.00 0.00 0.00 0.00 0.00 0.00 0.01 0.01 0.01 0.00 0.01 0.01 0.01 0.01 0.01 0.01 0.01 0.00 0.00 0.00 0.00 0.00 0.00 0.00 0.00 0.00 0.00 0.00 0.00 0.00 0.00
0.02 0.01 0.01 0.01 0.01 0.00 0.00 0.00 0.00 0.00 0.00 0.00 0.00 0.00 0.00 0.00 0.00 0.00 0.00 0.00 0.00 0.00 0.01 0.01 0.01 0.01 0.01 0.01 0.00 0.00 0.00 0.00 0.00 0.00 0.00 0.00 0.00 0.00 0.00 0.00 0.00 0.00 0.00
0.03 0.02 0.02 0.01 0.01 0.00 0.00 0.00 0.00 0.00 0.00 0.00 0.01 0.01 0.00 0.00 0.00 0.00 0.00 0.00 0.00 0.00 0.00 0.01 0.01 0.00 0.00 0.00 0.00 0.00 0.00 0.00 0.00 0.00 0.00 0.00 0.00 0.00 0.00 0.00 0.00 0.00 0.00
0.03 0.02 0.03 0.03 0.02 0.01 0.01 0.00 0.00 0.00 0.00 0.00 0.01 0.01 0.01 0.00 0.00 0.00 0.00 0.00 0.00 0.00 0.00 0.00 0.00 0.00 0.00 0.00 0.01 0.00 0.01 0.01 0.01 0.00 0.01 0.00 0.00 0.00 0.00 0.00 0.00 0.00 0.00
0.02 0.02 0.02 0.03 0.03 0.02 0.01 0.00 0.00 0.00 0.00 0.00 0.01 0.01 0.01 0.01 0.00 0.00 0.00 0.00 0.00 0.00 0.00 0.00 0.00 0.00 0.00 0.00 0.01 0.01 0.01 0.01 0.00 0.00 0.01 0.01 0.01 0.01 0.00 0.00 0.00 0.01 0.00
0.02 0.01 0.02 0.02 0.01 0.01 0.00 0.00 0.00 0.00 0.00 0.00 0.01 0.01 0.01 0.00 0.00 0.00 0.00 0.00 0.00 0.00 0.00 0.00 0.00 0.00 0.00 0.00 0.01 0.01 0.01 0.01 0.01 0.00 0.01 0.01 0.01 0.01 0.00 0.00 0.00 0.00 0.00
0.02 0.01 0.01 0.01 0.01 0.00 0.00 0.00 0.00 0.00 0.00 0.01 0.01 0.01 0.00 0.00 0.00 0.00 0.00 0.00 0.00 0.01 0.01 0.00 0.01 0.01 0.01 0.01 0.02 0.01 0.01 0.01 0.01 0.01 0.01 0.01 0.00 0.01 0.00 0.00 0.00 0.00 0.00
MSLP
1014.02 1014.27 1014.44 1014.56 1014.65 1014.74 1014.83 1014.93 1015.03 1015.08 1015.10 1015.07 1015.02 1014.96 1014.94 1014.99 1015.12 1015.35 1015.66 1016.03 1016.42 1016.81 1017.17 1017.50 1017.80 1018.09 1018.38 1018.67 1018.98 1019.28 1019.58 1019.86 1020.11 1020.32 1020.49 1020.65 1020.79 1020.93 1021.09 1021.25 1021.42 1021.59 1021.75
1013.92 1014.21 1014.43 1014.59 1014.72 1014.84 1014.95 1015.06 1015.15 1015.21 1015.23 1015.21 1015.17 1015.11 1015.08 1015.11 1015.20 1015.39 1015.65 1015.99 1016.36 1016.75 1017.15 1017.52 1017.88 1018.22 1018.55 1018.86 1019.16 1019.45 1019.71 1019.95 1020.17 1020.35 1020.52 1020.68 1020.83 1020.99 1021.15 1021.32 1021.48 1021.64 1021.79
1013.78 1014.11 1014.38 1014.60 1014.78 1014.94 1015.08 1015.20 1015.30 1015.37 1015.40 1015.40 1015.38 1015.34 1015.33 1015.35 1015.42 1015.57 1015.80 1016.09 1016.43 1016.80 1017.20 1017.59 1017.97 1018.33 1018.67 1018.99 1019.28 1019.54 1019.77 1019.97 1020.15 1020.32 1020.48 1020.63 1020.80 1020.96 1021.14 1021.31 1021.48 1021.63 1021.78
1013.61 1013.97 1014.29 1014.57 1014.82 1015.02 1015.20 1015.34 1015.45 1015.53 1015.58 1015.60 1015.60 1015.60 1015.61 1015.65 1015.73 1015.86 1016.05 1016.30 1016.59 1016.92 1017.28 1017.65 1018.03 1018.38 1018.72 1019.02 1019.29 1019.52 1019.72 1019.89 1020.04 1020.19 1020.33 1020.49 1020.66 1020.83 1021.01 1021.19 1021.36 1021.52 1021.67
1013.43 1013.81 1014.17 1014.51 1014.82 1015.08 1015.29 1015.45 1015.57 1015.66 1015.72 1015.76 1015.80 1015.84 1015.89 1015.96 1016.05 1016.18 1016.34 1016.54 1016.78 1017.06 1017.36 1017.68 1018.01 1018.33 1018.64 1018.92 1019.16 1019.37 1019.54 1019.69 1019.82 1019.96 1020.09 1020.24 1020.41 1020.58 1020.77 1020.94 1021.11 1021.27 1021.42
1013.26 1013.65 1014.05 1014.44 1014.80 1015.10 1015.35 1015.53 1015.66 1015.75 1015.81 1015.87 1015.93 1016.01 1016.10 1016.21 1016.33 1016.46 1016.61 1016.77 1016.95 1017.15 1017.37 1017.62 1017.89 1018.16 1018.43 1018.68 1018.90 1019.10 1019.26 1019.40 1019.53 1019.65 1019.78 1019.92 1020.07 1020.23 1020.40 1020.57 1020.73 1020.88 1021.03
1013.14 1013.51 1013.93 1014.37 1014.77 1015.12 1015.40 1015.60 1015.72 1015.80 1015.86 1015.92 1016.00 1016.11 1016.24 1016.38 1016.53 1016.67 1016.80 1016.92 1017.04 1017.16 1017.30 1017.47 1017.66 1017.88 1018.10 1018.33 1018.54 1018.73 1018.90 1019.05 1019.18 1019.30 1019.42 1019.55 1019.68 1019.82 1019.96 1020.10 1020.24 1020.37 1020.51
1013.07 1013.43 1013.86 1014.32 1014.77 1015.15 1015.45 1015.66 1015.78 1015.85 1015.89 1015.95 1016.03 1016.15 1016.30 1016.47 1016.64 1016.79 1016.90 1016.98 1017.04 1017.09 1017.14 1017.23 1017.34 1017.50 1017.69 1017.90 1018.11 1018.32 1018.51 1018.67 1018.82 1018.95 1019.06 1019.17 1019.27 1019.37 1019.47 1019.58 1019.68 1019.80 1019.92
1013.06 1013.40 1013.83 1014.31 1014.78 1015.19 1015.51 1015.73 1015.85 1015.90 1015.93 1015.97 1016.04 1016.17 1016.33 1016.51 1016.68 1016.83 1016.92 1016.96 1016.97 1016.94 1016.92 1016.93 1016.98 1017.09 1017.25 1017.44 1017.67 1017.90 1018.12 1018.31 1018.48 1018.61 1018.72 1018.81 1018.88 1018.94 1019.00 1019.06 1019.13 1019.21 1019.31
1013.08 1013.41 1013.84 1014.33 1014.81 1015.25 1015.58 1015.80 1015.93 1015.97 1015.99 1016.01 1016.07 1016.19 1016.34 1016.52 1016.70 1016.83 1016.90 1016.91 1016.86 1016.78 1016.69 1016.63 1016.63 1016.69 1016.82 1017.01 1017.25 1017.50 1017.74 1017.97 1018.16 1018.30 1018.41 1018.48 1018.52 1018.55 1018.56 1018.58 1018.61 1018.66 1018.73
1013.13 1013.44 1013.86 1014.35 1014.84 1015.29 1015.64 1015.88 1016.01 1016.05 1016.06 1016.08 1016.13 1016.23 1016.38 1016.55 1016.71 1016.83 1016.89 1016.87 1016.78 1016.65 1016.51 1016.40 1016.34 1016.36 1016.47 1016.64 1016.87 1017.14 1017.40 1017.64 1017.84 1018.00 1018.10 1018.16 1018.19 1018.18 1018.17 1018.16 1018.16 1018.18 1018.23
1013.17 1013.47 1013.87 1014.35 1014.85 1015.30 1015.67 1015.92 1016.07 1016.13 1016.14 1016.16 1016.21 1016.30 1016.44 1016.60 1016.75 1016.86 1016.90 1016.86 1016.75 1016.59 1016.41 1016.26 1016.16 1016.14 1016.21 1016.35 1016.56 1016.81 1017.07 1017.31 1017.51 1017.67 1017.77 1017.83 1017.84 1017.83 1017.81 1017.79 1017.77 1017.78 1017.81
1013.19 1013.48 1013.87 1014.33 1014.81 1015.26 1015.64 1015.91 1016.08 1016.17 1016.20 1016.23 1016.28 1016.37 1016.51 1016.66 1016.81 1016.91 1016.95 1016.90 1016.78 1016.61 1016.41 1016.23 1016.09 1016.03 1016.05 1016.15 1016.32 1016.52 1016.75 1016.96 1017.14 1017.29 1017.38 1017.44 1017.46 1017.45 1017.44 1017.43 1017.42 1017.43 1017.46
1013.19 1013.46 1013.83 1014.27 1014.74 1015.18 1015.56 1015.85 1016.04 1016.15 1016.21 1016.26 1016.32 1016.42 1016.55 1016.71 1016.86 1016.97 1017.01 1016.98 1016.88 1016.71 1016.51 1016.31 1016.14 1016.04 1016.00 1016.03 1016.13 1016.26 1016.42 1016.58 1016.73 1016.84 1016.92 1016.98 1017.01 1017.02 1017.03 1017.05 1017.06 1017.09 1017.12
1013.16 1013.42 1013.77 1014.19 1014.63 1015.07 1015.44 1015.74 1015.95 1016.09 1016.17 1016.23 1016.31 1016.42 1016.56 1016.72 1016.88 1017.01 1017.08 1017.08 1017.00 1016.86 1016.67 1016.47 1016.28 1016.13 1016.03 1015.98 1015.99 1016.03 1016.10 1016.19 1016.27 1016.34 1016.39 1016.44 1016.48 1016.52 1016.56 1016.61 1016.65 1016.70 1016.75
1013.10 1013.36 1013.70 1014.09 1014.52 1014.93 1015.31 1015.61 1015.83 1015.98 1016.08 1016.16 1016.25 1016.36 1016.51 1016.67 1016.85 1017.00 1017.10 1017.14 1017.11 1017.01 1016.85 1016.66 1016.46 1016.27 1016.11 1015.98 1015.89 1015.83 1015.80 1015.79 1015.79 1015.80 1015.82 1015.85 1015.89 1015.94 1016.01 1016.08 1016.16 1016.23 1016.30
1013.01 1013.28 1013.61 1014.00 1014.41 1014.81 1015.18 1015.48 1015.71 1015.87 1015.97 1016.06 1016.14 1016.25 1016.40 1016.57 1016.75 1016.92 1017.06 1017.14 1017.16 1017.11 1017.00 1016.83 1016.63 1016.42 1016.20 1016.00 1015.82 1015.66 1015.52 1015.41 1015.33 1015.27 1015.24 1015.23 1015.25 1015.30 1015.37 1015.45 1015.55 1015.64 1015.72
1012.88 1013.17 1013.51 1013.90 1014.31 1014.71 1015.07 1015.37 1015.60 1015.75 1015.86 1015.94 1016.02 1016.11 1016.24 1016.40 1016.58 1016.77 1016.93 1017.06 1017.12 1017.12 1017.05 1016.92 1016.74 1016.51 1016.26 1016.00 1015.75 1015.50 1015.27 1015.07 1014.90 1014.77 1014.67 1014.62 1014.60 1014.61 1014.66 1014.73 1014.82 1014.92 1015.00
1012.69 1013.02 1013.38 1013.78 1014.20 1014.60 1014.97 1015.27 1015.50 1015.66 1015.76 1015.82 1015.88 1015.95 1016.06 1016.20 1016.36 1016.55 1016.72 1016.87 1016.98 1017.02 1016.99 1016.89 1016.73 1016.50 1016.24 1015.95 1015.64 1015.34 1015.04 1014.77 1014.52 1014.32 1014.15 1014.03 1013.95 1013.91 1013.91 1013.94 1013.99 1014.07 1014.14
1012.46 1012.81 1013.21 1013.63 1014.06 1014.48 1014.86 1015.17 1015.40 1015.56 1015.65 1015.71 1015.74 1015.79 1015.86 1015.96 1016.10 1016.27 1016.44 1016.60 1016.72 1016.78 1016.78 1016.71 1016.57 1016.36 1016.10 1015.80 1015.47 1015.13 1014.80 1014.48 1014.18 1013.91 1013.68 1013.49 1013.33 1013.22 1013.14 1013.10 1013.09 1013.12 1013.17
1012.18 1012.56 1012.97 1013.42 1013.87 1014.31 1014.70 1015.03 1015.27 1015.44 1015.53 1015.58 1015.60 1015.61 1015.65 1015.72 1015.82 1015.95 1016.09 1016.23 1016.35 1016.42 1016.44 1016.38 1016.26 1016.07 1015.82 1015.53 1015.20 1014.86 1014.51 1014.17 1013.84 1013.53 1013.24 1012.98 1012.75 1012.55 1012.38 1012.26 1012.17 1012.13 1012.13
1011.88 1012.27 1012.70 1013.15 1013.62 1014.07 1014.48 1014.82 1015.08 1015.26 1015.37 1015.41 1015.42 1015.42 1015.43 1015.46 1015.52 1015.60 1015.71 1015.81 1015.90 1015.96 1015.97 1015.91 1015.80 1015.63 1015.40 1015.12 1014.82 1014.49 1014.16 1013.82 1013.48 1013.15 1012.83 1012.51 1012.21 1011.93 1011.67 1011.45 1011.27 1011.15 1011.10
1011.60 1011.98 1012.39 1012.84 1013.31 1013.76 1014.17 1014.53 1014.81 1015.01 1015.13 1015.19 1015.20 1015.19 1015.18 1015.18 1015.19 1015.23 1015.29 1015.35 1015.40 1015.42 1015.40 1015.34 1015.22 1015.06 1014.85 1014.60 1014.32 1014.03 1013.72 1013.41 1013.09 1012.76 1012.42 1012.07 1011.72 1011.37 1011.03 1010.72 1010.46 1010.26 1010.13
1011.37 1011.71 1012.10 1012.52 1012.96 1013.39 1013.80 1014.16 1014.46 1014.68 1014.82 1014.90 1014.92 1014.92 1014.89 1014.87 1014.86 1014.85 1014.86 1014.87 1014.87 1014.85 1014.80 1014.71 1014.58 1014.41 1014.21 1013.99 1013.74 1013.48 1013.22 1012.94 1012.65 1012.34 1012.01 1011.65 1011.28 1010.88 1010.49 1010.11 1009.78 1009.50 1009.30
1011.18 1011.48 1011.82 1012.20 1012.60 1013.00 1013.39 1013.74 1014.04 1014.27 1014.44 1014.54 1014.58 1014.59 1014.57 1014.54 1014.50 1014.46 1014.43 1014.40 1014.35 1014.28 1014.19 1014.07 1013.92 1013.75 1013.55 1013.34 1013.12 1012.90 1012.67 1012.43 1012.18 1011.91 1011.60 1011.26 1010.88 1010.47 1010.05 1009.63 1009.25 1008.91 1008.65
1011.02 1011.28 1011.58 1011.90 1012.25 1012.62 1012.97 1013.30 1013.60 1013.84 1014.01 1014.13 1014.20 1014.22 1014.21 1014.17 1014.13 1014.07 1014.01 1013.94 1013.86 1013.76 1013.63 1013.49 1013.31 1013.13 1012.92 1012.72 1012.51 1012.31 1012.11 1011.91 1011.70 1011.46 1011.19 1010.88 1010.52 1010.13 1009.70 1009.27 1008.86 1008.48 1008.16
Thickness
5758 5756 5754 5753 5752 5750 5749 5749 5749 5748 5748 5747 5747 5747 5746 5744 5742 5739 5735 5733 5731 5729 5727 5726 5724 5722 5721 5719 5718 5716 5715 5714 5714 5713 5713 5712 5712 5711 5710 5710 5709 5708 5707
5757 5755 5753 5752 5751 5750 5748 5748 5748 5747 5746 5745 5745 5745 5744 5743 5741 5738 5735 5732 5730 5729 5727 5725 5723 5721 5719 5718 5716 5715 5714 5713 5712 5712 5711 5710 5710 5709 5709 5708 5708 5707 5706
5755 5754 5752 5751 5751 5750 5748 5747 5746 5745 5744 5743 5743 5742 5742 5740 5739 5738 5735 5732 5730 5728 5726 5724 5722 5720 5718 5717 5716 5714 5713 5712 5711 5711 5710 5709 5708 5708 5707 5707 5706 5705 5705
5754 5753 5751 5750 5750 5749 5748 5746 5745 5743 5742 5741 5740 5740 5740 5739 5738 5737 5735 5733 5731 5728 5725 5724 5722 5720 5718 5716 5715 5714 5713 5712 5711 5710 5709 5708 5707 5707 5706 5705 5705 5704 5703
5752 5752 5751 5750 5749 5748 5747 5746 5743 5741 5739 5739 5739 5739 5739 5738 5737 5737 5736 5733 5731 5729 5726 5724 5722 5720 5718 5717 5715 5714 5712 5711 5710 5709 5708 5707 5706 5705 5704 5704 5703 5703 5702
5751 5750 5750 5749 5748 5747 5745 5744 5741 5741 5739 5738 5740 5738 5738 5738 5737 5736 5735 5734 5732 5730 5728 5725 5722 5720 5718 5717 5715 5714 5712 5711 5709 5708 5707 5706 5705 5704 5703 5702 5702 5701 5701
5749 5748 5749 5748 5747 5745 5744 5743 5742 5740 5738 5740 5736 5733 5735 5737 5735 5734 5735 5734 5733 5731 5729 5726 5723 5721 5719 5717 5716 5714 5713 5711 5710 5708 5707 5705 5704 5703 5702 5701 5700 5700 5699
5748 5748 5747 5747 5746 5744 5743 5742 5741 5738 5738 5740 5734 5728 5724 5726 5731 5737 5735 5734 5733 5731 5729 5727 5725 5722 5720 5718 5716 5714 5713 5711 5710 5708 5707 5705 5704 5702 5701 5700 5699 5698 5698
5747 5747 5746 5747 5746 5745 5742 5742 5741 5738 5736 5739 5739 5732 5724 5719 5723 5730 5733 5733 5733 5731 5730 5729 5726 5723 5721 5718 5716 5714 5712 5711 5710 5708 5707 5705 5704 5702 5701 5700 5699 5698 5697
5745 5745 5746 5746 5745 5745 5743 5742 5742 5741 5738 5736 5738 5738 5735 5732 5724 5720 5726 5730 5732 5730 5730 5730 5727 5724 5721 5718 5716 5714 5712 5710 5709 5708 5706 5705 5704 5702 5701 5699 5698 5697 5696
5744 5744 5744 5744 5744 5744 5743 5743 5742 5741 5740 5738 5738 5738 5736 5735 5734 5725 5719 5723 5727 5730 5730 5729 5727 5725 5722 5719 5716 5713 5711 5710 5708 5707 5705 5704 5703 5701 5700 5699 5698 5697 5696
5742 5743 5743 5743 5743 5743 5743 5742 5741 5741 5740 5740 5739 5739 5737 5734 5732 5730 5724 5722 5722 5726 5729 5728 5727 5725 5722 5720 5717 5713 5711 5709 5707 5706 5704 5703 5701 5700 5699 5698 5697 5696 5695
5740 5741 5743 5742 5742 5742 5742 5742 5740 5741 5740 5739 5738 5739 5739 5739 5738 5735 5729 5725 5724 5725 5726 5727 5727 5725 5723 5719 5716 5713 5710 5708 5706 5704 5703 5701 5700 5699 5698 5697 5696 5695 5693
5742 5741 5741 5741 5741 5741 5741 5740 5740 5740 5739 5738 5738 5737 5737 5738 5739 5736 5732 5727 5721 5722 5723 5724 5727 5725 5722 5718 5715 5712 5710 5708 5706 5704 5702 5701 5699 5698 5697 5696 5694 5693 5692
5742 5741 5740 5740 5740 5740 5740 5739 5739 5738 5737 5736 5736 5736 5735 5736 5737 5736 5734 5731 5723 5716 5716 5721 5723 5724 5721 5718 5714 5712 5710 5708 5706 5704 5703 5701 5699 5698 5696 5695 5693 5692 5691
5742 5740 5739 5739 5738 5738 5738 5737 5736 5736 5735 5734 5734 5733 5732 5734 5734 5734 5733 5731 5728 5722 5716 5720 5721 5721 5719 5717 5712 5711 5709 5707 5706 5704 5703 5701 5700 5698 5696 5694 5693 5691 5690
5739 5738 5738 5737 5737 5736 5736 5735 5735 5734 5733 5733 5732 5731 5730 5730 5729 5729 5730 5728 5726 5723 5716 5717 5720 5718 5716 5713 5710 5709 5708 5707 5706 5705 5703 5702 5700 5698 5696 5694 5693 5691 5689
5738 5737 5737 5736 5735 5735 5735 5734 5733 5733 5732 5730 5730 5729 5728 5728 5726 5724 5724 5723 5722 5721 5716 5711 5713 5713 5712 5711 5709 5707 5707 5707 5707 5706 5704 5702 5700 5697 5695 5694 5692 5690 5688
5737 5737 5736 5736 5735 5735 5734 5733 5733 5732 5732 5730 5729 5727 5725 5724 5722 5721 5720 5719 5718 5718 5715 5711 5709 5710 5710 5709 5707 5705 5706 5705 5705 5705 5703 5701 5698 5696 5694 5693 5691 5689 5687
5736 5736 5736 5736 5735 5734 5733 5732 5732 5731 5730 5729 5728 5726 5724 5722 5720 5717 5716 5715 5714 5712 5710 5708 5705 5705 5705 5706 5704 5700 5699 5701 5700 5701 5700 5698 5696 5694 5693 5691 5689 5687 5685
5737 5736 5735 5735 5734 5734 5733 5732 5731 5729 5727 5726 5725 5724 5723 5721 5718 5716 5714 5711 5709 5707 5705 5703 5701 5701 5700 5699 5697 5697 5694 5695 5696 5696 5695 5695 5694 5692 5690 5688 5687 5685 5682
5737 5736 5734 5733 5733 5734 5734 5731 5729 5728 5725 5723 5721 5720 5719 5717 5715 5712 5710 5707 5704 5701 5699 5696 5695 5693 5693 5694 5693 5691 5688 5685 5683 5689 5687 5686 5687 5687 5687 5687 5686 5684 5680
5736 5735 5734 5733 5732 5732 5731 5729 5726 5724 5723 5721 5719 5717 5716 5717 5714 5711 5707 5704 5701 5698 5695 5692 5689 5688 5687 5688 5685 5683 5680 5678 5677 5680 5678 5677 5680 5679 5681 5681 5680 5678 5675
5735 5734 5733 5732 5731 5729 5727 5725 5723 5721 5719 5718 5716 5715 5713 5711 5711 5708 5705 5701 5698 5696 5693 5689 5687 5686 5685 5683 5681 5678 5675 5674 5675 5675 5674 5669 5673 5673 5676 5675 5673 5671 5669
5735 5733 5732 5730 5728 5726 5723 5720 5718 5716 5714 5713 5713 5712 5711 5708 5706 5703 5699 5696 5693 5692 5692 5689 5687 5684 5681 5678 5675 5670 5667 5664 5664 5667 5668 5664 5665 5665 5665 5665 5664 5662 5661
5734 5732 5731 5729 5727 5725 5720 5716 5713 5712 5710 5709 5709 5708 5706 5704 5701 5698 5694 5690 5686 5685 5685 5683 5680 5678 5676 5674 5671 5666 5662 5658 5656 5657 5660 5657 5655 5653 5652 5655 5654 5653 5651